Starlink 32239

operational
NORAD ID: 61892 Int'l Des: 2024-204 Owner: SPXS Country: US Constellation: starlink
LEOCIRCULAR

关于 Starlink 32239

正在加载描述...

实时位置

正在加载3D地球...

即将过境

高度历史

Altitude vs Time

uPlot chart will show altitude changes over time

两行轨道根数

1 61892U 24204U 25303.51962009 -.00000034 00000-0 10986-4 0 9999
2 61892 53.1621 12.0117 0001232 90.6013 269.5129 15.30198980 55160
Epoch: Oct 30, 2025 • Age: 30 hours

当前状态

高度 476.8 km
速度 7.63 km/s
星下点 32.84°N, 165.72°W
发射日期 Nov 9, 2024
运行时间 0.9 years
类型 internet

技术详情

分类 Payload
质量 730.00 kg
干质量 700.00 kg
总质量 730.00 kg
长度 0.30 m
直径 4.10 m
跨度 29.00 m
形状 Box + pan
制造商 SPXS
平台类型 Starlink V2M
阶段状态 In Orbit
所有者/国家 SPXS/US

大型星座

Loading constellations...